Weather in Okor

Czech Republic     50°09′43″N   14°15′32″E
temp.,
°C
wind,
m/s
gust,
m/s
humid.,
%
clouds,
%
prec.,
mm/h
press.,
hPa
HPBL,
m
19 april, mon
mon1923:00+4wnw119080 0.0 102010
02:00+3nw1191100 0.0 102010
05:00+4nw1191100 0.0 102018
08:00+5nnw1287100 0.0 1020128
11:00+9nnw127398 0.0 1019463
14:00+12ne1254100 0.0 10181517
17:00+9nne3579100 0.6 1018430
20:00+8nw228790 0.8 101837
20 april, tue
tue2023:00+6w2289100 0.0 101720
02:00+5wnw229212 0.0 101711
05:00+4w119343 0.1 101710
08:00+7nnw1288100 0.5 1017163
11:00+9nnw118398 0.0 1017327
14:00+13nw116213 0.1 10151063
17:00+14n11516 0.0 10141376
20:00+10nnw117249 0.2 101410
21 april, wed
wed2123:00+8w228575 1.1 101511
02:00+6w228811 1.1 101516
05:00+5w228937 0.0 101524
08:00+8w24819 0.0 1015188
11:00+13nw34565 0.0 10151384
14:00+16wnw463899 0.0 10132561
17:00+15nw67399 0.0 10122285
20:00+9n22655 0.0 101311
22 april, thu
thu2223:00+7nw487793 0.0 1016184
02:00+6nw4673100 0.0 1016478
05:00+3wnw3578100 0.0 1017151
08:00+3nw5859100 0.0 1018705
11:00+6wnw5751100 0.0 10181377
14:00+9wnw7940100 0.0 10172340
17:00+10wnw7104086 0.0 10172329
20:00+6wnw510612 0.0 1018310
23 april, fri
fri2323:00+4w410725 0.0 1020253
02:00+2w49795 0.0 1021214
05:00+1w49815 0.0 1022228
08:00+4wnw577359 0.0 1023545
11:00+8nw565993 0.0 10231462
14:00+10nw464944 0.1 10231683
17:00+12nw564080 0.0 10212168
20:00+7nw34665 0.0 102245